Location: Chagrin Falls Park
(41.4139°N, 81.3865°W)
Time: 06:41:19
(UTC+00:00)

X-37B - Visible Passes

Search period start: 30 July 2021 00:00
Search period end: 09 August 2021 00:00
Orbit: 383 x 392 km, 45.0° (Epoch: 01 July)

Date Brightness Start Highest point End Pass type
(mag) Time Alt. Az. Time Alt. Az. Time Alt. Az.
31 Jul 2.1 09:03:53 18° SSW 09:05:27 27° SSE 09:08:14 10° E visible
01 Aug 3.1 08:08:05 14° SE 08:08:05 14° SE 08:09:15 10° ESE visible
01 Aug 0.6 09:40:22 10° WSW 09:43:34 81° SSE 09:46:46 10° ENE visible
02 Aug 1.0 08:44:32 39° SSW 08:45:14 47° SSE 08:48:20 10° ENE visible
03 Aug 3.0 07:48:41 17° E 07:48:41 17° E 07:49:45 10° E visible
03 Aug 0.8 09:20:57 15° W 09:23:28 66° NNW 09:26:39 10° ENE visible
04 Aug 0.4 08:25:04 82° SSE 08:25:05 82° SSE 08:28:17 10° ENE visible
05 Aug 3.4 07:29:11 15° E 07:29:11 15° E 07:29:51 10° ENE visible
05 Aug 1.3 09:01:28 20° W 09:03:25 49° N 09:06:33 10° ENE visible
06 Aug 1.4 08:05:35 50° NE 08:05:35 50° NE 08:08:10 10° ENE visible
06 Aug 1.8 09:38:51 10° WNW 09:41:54 40° N 09:44:58 10° ENE visible
07 Aug 3.9 07:09:44 10° ENE 07:09:44 10° ENE 07:09:48 10° ENE visible
07 Aug 1.7 08:42:01 25° WNW 08:43:25 41° N 08:46:29 10° ENE visible
08 Aug 2.6 07:46:13 29° NE 07:46:13 29° NE 07:48:04 10° ENE visible
08 Aug 1.6 09:18:49 10° WNW 09:21:54 45° N 09:25:00 10° E visible
